Weather History for KFTG - August, 2012

Change the Weather History Date:

Sunday, August 12, 2012

  Actual Average (KDEN) Record (KDEN)
Temperature  
Mean Temperature 70 °F 74 °F  
Max Temperature 86 °F 88 °F 100 °F (1876)
Min Temperature 55 °F 59 °F 49 °F (2004)
Degree Days  
Heating Degree Days 0 0  
Month to date heating degree days 0  
Since 1 June heating degree days 68  
Since 1 July heating degree days 6  
Cooling Degree Days 6 9  
Month to date cooling degree days 113  
Year to date cooling degree days 557  
Since 1 June cooling degree days 535  
Growing Degree Days 20 (Base 50)    
Moisture  
Dew Point 45 °F    
Average Humidity 54    
Maximum Humidity 88    
Minimum Humidity 17    
Precipitation  
Precipitation 0.00 in 0.06 in 1.35 in (1936)
Month to date precipitation 0.83  
Year to date precipitation 10.50  
Snow  
Snow 0.00 in - - ()
Month to date snowfall  
Since 1 June snowfall  
Since 1 July snowfall  
Snow Depth -    
Sea Level Pressure  
Sea Level Pressure 30.29 in    
Wind  
Wind Speed 7 mph (South)    
Max Wind Speed 13 mph    
Max Gust Speed -    
Visibility 12 miles    
Events      
T = Trace of Precipitation, MM = Missing Value Source: NWS Daily Summary

Daily Weather History Graph

Daily Weather History Graph

Search for Another Location

Airport or City:

Trip Planner

Search our weather history database for the weather conditions in past years. The results will help you decide how hot, cold, wet, or windy it might be!

Date:

Astronomy

Aug. 12, 2012 Rise Set
Actual Time 6:07 AM MDT 7:57 PM MDT
Civil Twilight 5:38 AM MDT 8:26 PM MDT
Nautical Twilight 5:03 AM MDT 9:01 PM MDT
Astronomical Twilight 4:25 AM MDT 9:39 PM MDT
Moon 1:23 AM MDT (8/12) 4:24 PM MDT (8/12)
Length of Visible Light 14h 47m
Length of Day
13h 49m
Waning Crescent, 23% of the Moon is Illuminated
Aug 12
Waning Crescent
Aug 17
New
Aug 24
First Quarter
Aug 31
Full
Sep 8
Last Quarter

Hourly Weather History & Observations

Time (MDT) Temp. Dew Point Humidity Pressure Visibility Wind Dir Wind Speed Gust Speed Precip Events Conditions
12:17 AM 59.0 °F 55.4 °F 88% 30.25 in 10.0 mi WSW 6.9 mph - N/A   Clear
12:37 AM 59.0 °F 53.6 °F 82% 30.26 in 10.0 mi West 4.6 mph - N/A   Clear
12:57 AM 59.0 °F 53.6 °F 82% 30.28 in 10.0 mi NNW 10.4 mph - N/A   Clear
1:17 AM 60.8 °F 53.6 °F 77% 30.28 in 10.0 mi North 12.7 mph - N/A   Clear
1:37 AM 59.0 °F 51.8 °F 77% 30.28 in 10.0 mi North 11.5 mph - N/A   Clear
1:56 AM 59.0 °F 51.8 °F 77% 30.29 in 10.0 mi North 10.4 mph - N/A   Clear
2:17 AM 59.0 °F 50.0 °F 72% 30.29 in 10.0 mi North 9.2 mph - N/A   Clear
2:37 AM 59.0 °F 50.0 °F 72% 30.29 in 10.0 mi North 4.6 mph - N/A   Clear
2:57 AM 59.0 °F 50.0 °F 72% 30.29 in 10.0 mi North 5.8 mph - N/A   Clear
3:17 AM 59.0 °F 48.2 °F 67% 30.29 in 10.0 mi NNW 3.5 mph - N/A   Clear
3:37 AM 60.8 °F 46.4 °F 59% 30.29 in 10.0 mi North 3.5 mph - N/A   Clear
3:57 AM 59.0 °F 46.4 °F 63% 30.30 in 10.0 mi Calm Calm - N/A   Clear
4:17 AM 57.2 °F 48.2 °F 72% 30.30 in 10.0 mi WSW 4.6 mph - N/A   Clear
4:37 AM 57.2 °F 48.2 °F 72% 30.29 in 10.0 mi SW 5.8 mph - N/A   Clear
4:57 AM 55.4 °F 48.2 °F 77% 30.29 in 10.0 mi SW 5.8 mph - N/A   Clear
5:17 AM 57.2 °F 46.4 °F 67% 30.29 in 10.0 mi SW 5.8 mph - N/A   Clear
5:37 AM 55.4 °F 46.4 °F 72% 30.30 in 10.0 mi SW 6.9 mph - N/A   Clear
5:57 AM 55.4 °F 46.4 °F 72% 30.30 in 10.0 mi SSW 11.5 mph - N/A   Clear
6:16 AM 57.2 °F 46.4 °F 67% 30.30 in 10.0 mi SSW 5.8 mph - N/A   Clear
6:36 AM 55.4 °F 46.4 °F 72% 30.30 in 10.0 mi SSW 6.9 mph - N/A   Clear
6:53 AM 55.4 °F 48.2 °F 77% 30.31 in 10.0 mi SSW 6.9 mph - N/A   Clear
7:47 AM 62.6 °F 50.0 °F 63% 30.32 in 20.0 mi South 5.8 mph - N/A   Clear
8:50 AM 68.0 °F 48.2 °F 49% 30.32 in 20.0 mi South 5.8 mph - N/A   Clear
9:45 AM 71.6 °F 44.6 °F 38% 30.32 in 20.0 mi Calm Calm - N/A   Clear
10:50 AM 75.2 °F 41.0 °F 29% 30.32 in 20.0 mi Calm Calm - N/A   Clear
11:48 AM 77.0 °F 39.2 °F 26% 30.31 in 20.0 mi ENE 6.9 mph - N/A   Partly Cloudy
1:55 PM 84.2 °F 35.6 °F 18% 30.28 in 20.0 mi East 3.5 mph - N/A   Partly Cloudy
2:50 PM 86.0 °F 37.4 °F 18% 30.26 in 20.0 mi Calm Calm - N/A   Partly Cloudy
3:50 PM 86.0 °F 35.6 °F 17% 30.24 in 20.0 mi Calm Calm - N/A   Partly Cloudy
4:50 PM 86.0 °F 35.6 °F 17% 30.23 in 20.0 mi ENE 10.4 mph - N/A   Partly Cloudy
9:17 PM 69.8 °F 37.4 °F 31% 30.27 in 10.0 mi SE 9.2 mph - N/A   Scattered Clouds
9:37 PM 71.6 °F 37.4 °F 29% 30.28 in 10.0 mi SSE 8.1 mph - N/A   Mostly Cloudy
9:56 PM 71.6 °F 37.4 °F 29% 30.28 in 10.0 mi SE 6.9 mph - N/A   Mostly Cloudy
10:17 PM 69.8 °F 37.4 °F 31% 30.29 in 10.0 mi SE 8.1 mph - N/A   Scattered Clouds
10:57 PM 68.0 °F 37.4 °F 33% 30.28 in 10.0 mi SE 9.2 mph - N/A   Clear
11:17 PM 68.0 °F 35.6 °F 30% 30.28 in 10.0 mi SSE 9.2 mph - N/A   Clear
11:37 PM 64.4 °F 37.4 °F 37% 30.28 in 10.0 mi SSE 6.9 mph - N/A   Clear
11:57 PM 62.6 °F 37.4 °F 39% 30.29 in 10.0 mi SSE 8.1 mph - N/A   Clear